TimePDT,TemperatureF,Dew PointF,Humidity,Sea Level PressureIn,VisibilityMPH,Wind Direction,Wind SpeedMPH,Gust SpeedMPH,PrecipitationIn,Events,Conditions,WindDirDegrees,DateUTC
12:56 AM,79.0,30.9,17,29.78,10.0,Calm,Calm,-,N/A,,Clear,0,2012-10-06 07:56:00
1:56 AM,77.0,30.0,18,29.78,10.0,NW,4.6,-,N/A,,Clear,310,2012-10-06 08:56:00
2:56 AM,73.9,30.9,21,29.77,10.0,WSW,4.6,-,N/A,,Clear,240,2012-10-06 09:56:00
3:56 AM,73.0,30.9,21,29.76,10.0,Calm,Calm,-,N/A,,Clear,0,2012-10-06 10:56:00
4:56 AM,72.0,30.9,22,29.77,10.0,WNW,4.6,-,N/A,,Clear,290,2012-10-06 11:56:00
5:56 AM,71.1,32.0,24,29.78,10.0,WNW,4.6,-,N/A,,Clear,290,2012-10-06 12:56:00
6:56 AM,72.0,32.0,23,29.79,10.0,WNW,5.8,-,N/A,,Clear,290,2012-10-06 13:56:00
7:56 AM,73.9,33.1,22,29.80,10.0,NNW,5.8,-,N/A,,Clear,330,2012-10-06 14:56:00
8:56 AM,78.1,33.1,19,29.81,10.0,North,3.5,-,N/A,,Clear,360,2012-10-06 15:56:00
9:56 AM,82.9,33.1,17,29.81,10.0,NNE,3.5,-,N/A,,Clear,30,2012-10-06 16:56:00
10:56 AM,84.9,34.0,16,29.79,10.0,NE,4.6,-,N/A,,Clear,50,2012-10-06 17:56:00
11:56 AM,88.0,37.0,16,29.78,10.0,ENE,5.8,-,N/A,,Clear,60,2012-10-06 18:56:00
12:56 PM,90.0,35.1,14,29.75,10.0,Variable,3.5,-,N/A,,Clear,0,2012-10-06 19:56:00
1:56 PM,93.0,35.1,13,29.72,10.0,Calm,Calm,-,N/A,,Clear,0,2012-10-06 20:56:00
2:56 PM,93.0,35.1,13,29.71,10.0,ESE,4.6,-,N/A,,Clear,120,2012-10-06 21:56:00
3:56 PM,93.0,34.0,12,29.70,10.0,Variable,3.5,-,N/A,,Clear,0,2012-10-06 22:56:00
4:56 PM,93.9,33.1,12,29.69,10.0,SSE,4.6,-,N/A,,Clear,160,2012-10-06 23:56:00
5:56 PM,91.9,33.1,12,29.68,10.0,SSW,4.6,-,N/A,,Clear,200,2012-10-07 00:56:00
6:56 PM,88.0,30.0,12,29.70,10.0,WSW,9.2,-,N/A,,Clear,240,2012-10-07 01:56:00
7:56 PM,86.0,30.0,13,29.70,10.0,West,10.4,-,N/A,,Clear,260,2012-10-07 02:56:00
8:56 PM,82.9,30.0,15,29.71,10.0,WSW,10.4,-,N/A,,Clear,240,2012-10-07 03:56:00
9:56 PM,82.9,30.9,15,29.71,10.0,WSW,11.5,-,N/A,,Clear,250,2012-10-07 04:56:00
10:56 PM,80.1,30.9,17,29.72,10.0,Calm,Calm,-,N/A,,Clear,0,2012-10-07 05:56:00
11:56 PM,75.9,30.0,19,29.72,10.0,West,6.9,-,N/A,,Clear,260,2012-10-07 06:56:00